QPF
0.01 0.00 0.01 0.01 0.01 0.01 0.01 0.01 0.01 0.02 0.01 0.02 0.02 0.03 0.05 0.04 0.04 0.05 0.04 0.04 0.04 0.05 0.04 0.04 0.04 0.04 0.03 0.03 0.03 0.03 0.03 0.04 0.05 0.05 0.05 0.05 0.03 0.02 0.02 0.02 0.03 0.03 0.03
0.00 0.01 0.02 0.02 0.03 0.02 0.01 0.01 0.02 0.02 0.02 0.02 0.03 0.03 0.04 0.05 0.05 0.05 0.04 0.04 0.04 0.05 0.05 0.06 0.04 0.02 0.02 0.03 0.04 0.04 0.04 0.04 0.04 0.05 0.06 0.04 0.04 0.05 0.04 0.03 0.03 0.04 0.03
0.00 0.01 0.02 0.02 0.03 0.03 0.03 0.03 0.02 0.02 0.03 0.03 0.03 0.03 0.03 0.04 0.05 0.05 0.04 0.03 0.04 0.04 0.03 0.05 0.04 0.04 0.04 0.04 0.05 0.05 0.06 0.05 0.05 0.05 0.04 0.05 0.04 0.05 0.05 0.04 0.05 0.04 0.03
0.01 0.01 0.01 0.02 0.02 0.03 0.03 0.03 0.04 0.05 0.05 0.05 0.04 0.03 0.02 0.03 0.03 0.03 0.03 0.03 0.03 0.03 0.02 0.03 0.03 0.04 0.04 0.03 0.03 0.04 0.04 0.04 0.05 0.06 0.06 0.05 0.04 0.05 0.05 0.05 0.05 0.05 0.04
0.01 0.01 0.01 0.02 0.03 0.04 0.04 0.06 0.07 0.07 0.07 0.06 0.05 0.03 0.03 0.03 0.03 0.02 0.03 0.03 0.03 0.02 0.02 0.02 0.02 0.02 0.02 0.01 0.02 0.02 0.03 0.03 0.03 0.04 0.04 0.04 0.04 0.04 0.03 0.05 0.04 0.04 0.04
0.01 0.01 0.01 0.02 0.03 0.04 0.06 0.07 0.08 0.08 0.07 0.06 0.05 0.05 0.04 0.04 0.03 0.03 0.02 0.02 0.02 0.02 0.02 0.01 0.01 0.01 0.00 0.00 0.01 0.01 0.02 0.02 0.03 0.03 0.03 0.03 0.03 0.03 0.02 0.03 0.04 0.03 0.03
0.01 0.01 0.01 0.02 0.03 0.03 0.04 0.03 0.03 0.04 0.04 0.04 0.04 0.04 0.04 0.04 0.03 0.02 0.02 0.02 0.01 0.01 0.01 0.01 0.01 0.01 0.01 0.01 0.01 0.01 0.01 0.01 0.01 0.02 0.02 0.03 0.03 0.03 0.03 0.02 0.04 0.05 0.04
0.01 0.01 0.01 0.01 0.02 0.02 0.03 0.02 0.02 0.02 0.02 0.03 0.03 0.03 0.04 0.02 0.01 0.00 0.00 0.01 0.01 0.01 0.01 0.02 0.03 0.02 0.01 0.01 0.01 0.01 0.01 0.01 0.01 0.01 0.02 0.02 0.02 0.03 0.03 0.03 0.03 0.04 0.04
0.01 0.01 0.01 0.01 0.02 0.02 0.02 0.01 0.01 0.01 0.01 0.03 0.03 0.04 0.03 0.02 0.01 0.00 0.00 0.01 0.01 0.01 0.02 0.02 0.01 0.01 0.01 0.01 0.01 0.01 0.01 0.01 0.00 0.00 0.01 0.01 0.01 0.01 0.02 0.03 0.05 0.05 0.05
0.01 0.01 0.01 0.01 0.01 0.01 0.01 0.02 0.02 0.02 0.03 0.04 0.05 0.04 0.02 0.02 0.01 0.00 0.00 0.01 0.02 0.02 0.03 0.02 0.01 0.01 0.00 0.00 0.01 0.01 0.01 0.01 0.01 0.00 0.01 0.00 0.01 0.01 0.01 0.03 0.06 0.07 0.05
0.01 0.01 0.01 0.01 0.01 0.01 0.01 0.01 0.02 0.04 0.05 0.06 0.05 0.03 0.02 0.01 0.01 0.00 0.00 0.01 0.02 0.01 0.02 0.02 0.02 0.01 0.01 0.01 0.01 0.01 0.01 0.01 0.00 0.00 0.01 0.01 0.01 0.02 0.02 0.02 0.04 0.08 0.09
0.01 0.01 0.01 0.01 0.01 0.01 0.02 0.02 0.04 0.05 0.04 0.03 0.02 0.02 0.01 0.01 0.01 0.01 0.01 0.01 0.01 0.02 0.02 0.02 0.01 0.01 0.01 0.01 0.01 0.01 0.00 0.00 0.01 0.01 0.02 0.02 0.02 0.03 0.02 0.02 0.02 0.06 0.10
0.01 0.01 0.02 0.02 0.02 0.02 0.02 0.03 0.04 0.05 0.03 0.03 0.01 0.01 0.01 0.01 0.01 0.01 0.01 0.02 0.01 0.02 0.02 0.02 0.02 0.01 0.02 0.01 0.01 0.01 0.01 0.01 0.01 0.02 0.02 0.01 0.01 0.01 0.01 0.02 0.03 0.04 0.07
0.02 0.01 0.02 0.02 0.03 0.03 0.03 0.03 0.04 0.03 0.02 0.02 0.01 0.01 0.01 0.01 0.02 0.02 0.02 0.02 0.02 0.02 0.03 0.03 0.02 0.02 0.01 0.01 0.01 0.01 0.01 0.02 0.02 0.02 0.02 0.01 0.01 0.01 0.01 0.02 0.02 0.03 0.04
0.01 0.02 0.02 0.02 0.02 0.02 0.03 0.02 0.02 0.02 0.02 0.01 0.01 0.01 0.01 0.01 0.01 0.01 0.01 0.01 0.02 0.02 0.02 0.03 0.03 0.03 0.02 0.01 0.01 0.01 0.01 0.01 0.01 0.01 0.02 0.02 0.02 0.02 0.03 0.03 0.03 0.03 0.03
0.01 0.01 0.01 0.01 0.01 0.02 0.02 0.02 0.02 0.02 0.01 0.01 0.01 0.01 0.01 0.01 0.01 0.01 0.01 0.01 0.02 0.02 0.02 0.03 0.03 0.03 0.02 0.01 0.01 0.01 0.01 0.01 0.01 0.01 0.01 0.01 0.02 0.03 0.04 0.06 0.07 0.06 0.05
0.01 0.02 0.01 0.01 0.01 0.01 0.02 0.02 0.01 0.01 0.01 0.01 0.01 0.01 0.02 0.02 0.02 0.02 0.02 0.02 0.02 0.02 0.03 0.03 0.03 0.03 0.03 0.02 0.01 0.01 0.01 0.01 0.01 0.01 0.01 0.01 0.02 0.03 0.03 0.04 0.05 0.06 0.07
0.01 0.02 0.02 0.01 0.01 0.02 0.02 0.02 0.01 0.01 0.01 0.01 0.01 0.01 0.02 0.02 0.03 0.03 0.04 0.04 0.04 0.03 0.03 0.04 0.03 0.03 0.03 0.02 0.02 0.01 0.01 0.01 0.01 0.01 0.01 0.02 0.03 0.03 0.03 0.04 0.03 0.03 0.04
0.01 0.02 0.02 0.02 0.02 0.02 0.01 0.01 0.01 0.01 0.01 0.01 0.01 0.01 0.02 0.02 0.02 0.03 0.03 0.04 0.05 0.04 0.04 0.04 0.03 0.03 0.02 0.02 0.02 0.01 0.01 0.01 0.01 0.01 0.01 0.02 0.03 0.03 0.03 0.03 0.03 0.03 0.03
0.01 0.01 0.02 0.02 0.02 0.02 0.01 0.01 0.01 0.02 0.02 0.01 0.01 0.01 0.01 0.02 0.02 0.03 0.03 0.03 0.04 0.04 0.04 0.03 0.03 0.02 0.02 0.01 0.01 0.01 0.01 0.01 0.01 0.01 0.02 0.03 0.03 0.03 0.03 0.03 0.03 0.03 0.03
0.00 0.01 0.01 0.02 0.01 0.01 0.01 0.01 0.01 0.01 0.01 0.01 0.02 0.02 0.02 0.02 0.03 0.03 0.03 0.03 0.03 0.03 0.03 0.03 0.02 0.01 0.01 0.01 0.01 0.01 0.02 0.02 0.01 0.01 0.02 0.03 0.05 0.04 0.04 0.04 0.03 0.04 0.04
0.00 0.01 0.01 0.01 0.01 0.01 0.01 0.01 0.01 0.01 0.02 0.02 0.03 0.02 0.02 0.02 0.02 0.02 0.02 0.03 0.03 0.03 0.03 0.02 0.02 0.01 0.01 0.01 0.01 0.01 0.01 0.01 0.01 0.01 0.02 0.04 0.05 0.05 0.05 0.05 0.05 0.05 0.06
0.00 0.01 0.01 0.01 0.01 0.01 0.02 0.02 0.02 0.02 0.03 0.02 0.02 0.03 0.02 0.02 0.02 0.02 0.02 0.02 0.02 0.02 0.01 0.01 0.02 0.01 0.01 0.00 0.01 0.01 0.01 0.01 0.01 0.01 0.02 0.03 0.05 0.06 0.06 0.06 0.06 0.07 0.06
0.01 0.01 0.01 0.01 0.01 0.01 0.02 0.02 0.02 0.02 0.02 0.02 0.02 0.03 0.03 0.02 0.01 0.01 0.01 0.01 0.01 0.01 0.01 0.01 0.01 0.01 0.00 0.00 0.00 0.00 0.00 0.01 0.01 0.01 0.02 0.03 0.05 0.05 0.06 0.07 0.08 0.07 0.07
0.01 0.01 0.02 0.03 0.02 0.02 0.03 0.03 0.02 0.02 0.02 0.02 0.03 0.03 0.04 0.03 0.02 0.01 0.01 0.01 0.01 0.01 0.01 0.01 0.01 0.01 0.01 0.01 0.01 0.01 0.00 0.00 0.00 0.01 0.01 0.02 0.04 0.05 0.05 0.07 0.09 0.10 0.08
0.01 0.02 0.02 0.04 0.05 0.06 0.05 0.03 0.02 0.03 0.03 0.02 0.02 0.02 0.02 0.02 0.02 0.02 0.01 0.01 0.01 0.01 0.01 0.01 0.01 0.01 0.01 0.01 0.01 0.01 0.01 0.00 0.00 0.01 0.01 0.02 0.04 0.05 0.05 0.06 0.09 0.09 0.08
MSLP
1006.95 1007.08 1007.24 1007.39 1007.51 1007.61 1007.67 1007.71 1007.74 1007.79 1007.86 1007.95 1008.05 1008.14 1008.19 1008.20 1008.16 1008.05 1007.90 1007.71 1007.52 1007.35 1007.20 1007.08 1006.99 1006.90 1006.80 1006.65 1006.45 1006.17 1005.82 1005.41 1004.98 1004.53 1004.11 1003.73 1003.42 1003.18 1003.00 1002.88 1002.80 1002.76 1002.73
1008.06 1008.06 1008.09 1008.12 1008.15 1008.17 1008.18 1008.19 1008.23 1008.29 1008.38 1008.49 1008.62 1008.73 1008.79 1008.80 1008.74 1008.61 1008.42 1008.18 1007.93 1007.70 1007.49 1007.31 1007.17 1007.05 1006.92 1006.76 1006.56 1006.29 1005.95 1005.56 1005.14 1004.70 1004.28 1003.89 1003.54 1003.25 1003.01 1002.80 1002.62 1002.46 1002.31
1009.21 1009.10 1009.01 1008.94 1008.86 1008.80 1008.74 1008.72 1008.73 1008.80 1008.90 1009.03 1009.18 1009.30 1009.39 1009.40 1009.33 1009.19 1008.97 1008.70 1008.42 1008.14 1007.89 1007.68 1007.51 1007.36 1007.22 1007.06 1006.86 1006.60 1006.29 1005.92 1005.52 1005.10 1004.68 1004.28 1003.92 1003.58 1003.27 1002.98 1002.69 1002.39 1002.09
1010.30 1010.11 1009.92 1009.74 1009.58 1009.43 1009.31 1009.24 1009.22 1009.27 1009.37 1009.50 1009.66 1009.79 1009.88 1009.90 1009.84 1009.69 1009.46 1009.19 1008.89 1008.61 1008.34 1008.12 1007.94 1007.78 1007.64 1007.48 1007.28 1007.03 1006.73 1006.38 1006.00 1005.60 1005.20 1004.81 1004.43 1004.07 1003.72 1003.35 1002.96 1002.53 1002.08
1011.23 1010.98 1010.73 1010.47 1010.23 1010.01 1009.82 1009.70 1009.64 1009.66 1009.74 1009.86 1010.01 1010.14 1010.23 1010.25 1010.19 1010.05 1009.84 1009.58 1009.29 1009.02 1008.77 1008.56 1008.38 1008.23 1008.09 1007.92 1007.72 1007.48 1007.18 1006.84 1006.47 1006.09 1005.71 1005.34 1004.97 1004.61 1004.23 1003.82 1003.36 1002.83 1002.25
1011.97 1011.69 1011.39 1011.08 1010.78 1010.50 1010.27 1010.09 1010.00 1009.97 1010.02 1010.11 1010.23 1010.34 1010.42 1010.43 1010.38 1010.25 1010.06 1009.84 1009.59 1009.35 1009.14 1008.95 1008.80 1008.65 1008.51 1008.34 1008.13 1007.87 1007.56 1007.22 1006.85 1006.48 1006.12 1005.77 1005.44 1005.10 1004.73 1004.31 1003.81 1003.23 1002.55
1012.53 1012.24 1011.92 1011.58 1011.24 1010.93 1010.66 1010.44 1010.30 1010.24 1010.24 1010.30 1010.38 1010.45 1010.50 1010.51 1010.45 1010.34 1010.18 1009.99 1009.80 1009.61 1009.44 1009.29 1009.15 1009.02 1008.87 1008.68 1008.45 1008.16 1007.83 1007.46 1007.08 1006.72 1006.37 1006.06 1005.76 1005.46 1005.13 1004.74 1004.26 1003.66 1002.94
1012.98 1012.68 1012.35 1012.01 1011.66 1011.34 1011.05 1010.81 1010.64 1010.54 1010.50 1010.50 1010.53 1010.57 1010.59 1010.56 1010.50 1010.40 1010.27 1010.12 1009.97 1009.83 1009.70 1009.59 1009.47 1009.34 1009.18 1008.96 1008.69 1008.36 1007.98 1007.58 1007.18 1006.80 1006.46 1006.17 1005.91 1005.67 1005.40 1005.06 1004.63 1004.06 1003.37
1013.37 1013.09 1012.77 1012.44 1012.11 1011.79 1011.50 1011.26 1011.07 1010.95 1010.87 1010.83 1010.81 1010.80 1010.77 1010.72 1010.64 1010.54 1010.42 1010.30 1010.18 1010.08 1009.98 1009.89 1009.78 1009.64 1009.46 1009.20 1008.88 1008.49 1008.06 1007.61 1007.17 1006.77 1006.42 1006.15 1005.92 1005.72 1005.51 1005.24 1004.88 1004.39 1003.77
1013.79 1013.52 1013.23 1012.92 1012.62 1012.33 1012.07 1011.84 1011.66 1011.52 1011.42 1011.34 1011.28 1011.22 1011.15 1011.06 1010.95 1010.84 1010.71 1010.60 1010.49 1010.40 1010.32 1010.23 1010.11 1009.95 1009.73 1009.42 1009.04 1008.60 1008.11 1007.60 1007.12 1006.68 1006.32 1006.03 1005.82 1005.65 1005.49 1005.29 1005.01 1004.61 1004.08
1014.25 1014.00 1013.74 1013.48 1013.22 1012.98 1012.76 1012.56 1012.40 1012.27 1012.16 1012.06 1011.96 1011.86 1011.74 1011.61 1011.46 1011.32 1011.18 1011.05 1010.93 1010.83 1010.73 1010.62 1010.47 1010.27 1010.00 1009.65 1009.21 1008.71 1008.17 1007.61 1007.08 1006.60 1006.21 1005.90 1005.68 1005.52 1005.39 1005.23 1005.02 1004.71 1004.29
1014.74 1014.52 1014.29 1014.08 1013.88 1013.69 1013.52 1013.38 1013.25 1013.14 1013.03 1012.92 1012.79 1012.66 1012.50 1012.33 1012.14 1011.96 1011.78 1011.62 1011.47 1011.33 1011.19 1011.04 1010.85 1010.60 1010.28 1009.88 1009.40 1008.85 1008.26 1007.67 1007.10 1006.58 1006.15 1005.81 1005.56 1005.39 1005.25 1005.12 1004.95 1004.71 1004.38
1015.22 1015.03 1014.84 1014.68 1014.53 1014.41 1014.30 1014.20 1014.11 1014.03 1013.93 1013.82 1013.68 1013.52 1013.33 1013.12 1012.90 1012.68 1012.46 1012.25 1012.05 1011.86 1011.66 1011.45 1011.20 1010.90 1010.54 1010.10 1009.59 1009.01 1008.41 1007.79 1007.19 1006.65 1006.18 1005.81 1005.52 1005.30 1005.14 1005.00 1004.85 1004.65 1004.39
1015.64 1015.48 1015.33 1015.21 1015.11 1015.04 1014.98 1014.93 1014.88 1014.82 1014.74 1014.63 1014.49 1014.32 1014.11 1013.88 1013.63 1013.36 1013.10 1012.84 1012.58 1012.33 1012.08 1011.81 1011.50 1011.16 1010.76 1010.29 1009.77 1009.19 1008.59 1007.98 1007.38 1006.83 1006.34 1005.92 1005.59 1005.33 1005.12 1004.94 1004.76 1004.58 1004.36
1015.98 1015.83 1015.71 1015.62 1015.55 1015.51 1015.49 1015.47 1015.45 1015.41 1015.34 1015.25 1015.11 1014.94 1014.72 1014.48 1014.20 1013.91 1013.62 1013.31 1013.01 1012.70 1012.39 1012.07 1011.72 1011.34 1010.92 1010.45 1009.94 1009.39 1008.82 1008.23 1007.66 1007.11 1006.62 1006.18 1005.80 1005.48 1005.21 1004.97 1004.76 1004.55 1004.33
1016.20 1016.07 1015.96 1015.88 1015.83 1015.81 1015.80 1015.79 1015.78 1015.75 1015.69 1015.60 1015.47 1015.30 1015.09 1014.84 1014.56 1014.26 1013.95 1013.62 1013.28 1012.94 1012.59 1012.23 1011.86 1011.46 1011.04 1010.60 1010.12 1009.61 1009.09 1008.56 1008.03 1007.51 1007.02 1006.56 1006.14 1005.77 1005.43 1005.13 1004.85 1004.59 1004.35
1016.34 1016.21 1016.10 1016.02 1015.97 1015.94 1015.92 1015.91 1015.90 1015.86 1015.81 1015.72 1015.59 1015.42 1015.22 1014.98 1014.71 1014.42 1014.10 1013.76 1013.42 1013.06 1012.70 1012.33 1011.95 1011.57 1011.18 1010.76 1010.34 1009.89 1009.44 1008.96 1008.48 1008.00 1007.52 1007.05 1006.60 1006.17 1005.77 1005.39 1005.04 1004.73 1004.45
1016.43 1016.28 1016.17 1016.07 1016.01 1015.96 1015.93 1015.90 1015.87 1015.82 1015.75 1015.66 1015.53 1015.37 1015.18 1014.96 1014.70 1014.42 1014.12 1013.80 1013.46 1013.12 1012.77 1012.42 1012.07 1011.72 1011.36 1011.01 1010.64 1010.26 1009.87 1009.46 1009.03 1008.57 1008.10 1007.62 1007.13 1006.65 1006.18 1005.73 1005.31 1004.93 1004.59
1016.48 1016.33 1016.20 1016.10 1016.02 1015.95 1015.90 1015.85 1015.79 1015.73 1015.64 1015.54 1015.41 1015.25 1015.07 1014.86 1014.62 1014.37 1014.09 1013.80 1013.50 1013.19 1012.88 1012.57 1012.26 1011.96 1011.66 1011.36 1011.06 1010.74 1010.41 1010.04 1009.64 1009.21 1008.74 1008.23 1007.70 1007.16 1006.61 1006.09 1005.60 1005.15 1004.75
1016.54 1016.38 1016.25 1016.13 1016.04 1015.96 1015.89 1015.83 1015.75 1015.67 1015.57 1015.46 1015.32 1015.16 1014.98 1014.79 1014.58 1014.35 1014.11 1013.85 1013.59 1013.33 1013.07 1012.81 1012.57 1012.32 1012.09 1011.85 1011.60 1011.34 1011.04 1010.70 1010.32 1009.88 1009.38 1008.84 1008.25 1007.64 1007.03 1006.43 1005.86 1005.35 1004.90
1016.58 1016.44 1016.31 1016.20 1016.11 1016.03 1015.96 1015.89 1015.81 1015.72 1015.61 1015.49 1015.35 1015.19 1015.01 1014.82 1014.63 1014.42 1014.21 1014.00 1013.79 1013.58 1013.37 1013.18 1012.99 1012.82 1012.64 1012.45 1012.25 1012.02 1011.74 1011.41 1011.01 1010.55 1010.01 1009.41 1008.76 1008.07 1007.38 1006.71 1006.07 1005.50 1005.00
1016.62 1016.49 1016.37 1016.29 1016.22 1016.16 1016.10 1016.05 1015.98 1015.89 1015.79 1015.66 1015.52 1015.36 1015.18 1015.00 1014.81 1014.62 1014.43 1014.25 1014.08 1013.92 1013.78 1013.64 1013.52 1013.39 1013.27 1013.12 1012.95 1012.74 1012.47 1012.12 1011.70 1011.18 1010.59 1009.92 1009.20 1008.44 1007.68 1006.93 1006.23 1005.60 1005.05
1016.63 1016.52 1016.44 1016.38 1016.34 1016.32 1016.30 1016.27 1016.22 1016.16 1016.07 1015.96 1015.82 1015.66 1015.48 1015.30 1015.12 1014.93 1014.76 1014.60 1014.46 1014.34 1014.24 1014.15 1014.07 1013.99 1013.90 1013.79 1013.64 1013.43 1013.15 1012.78 1012.32 1011.76 1011.11 1010.37 1009.58 1008.76 1007.93 1007.12 1006.37 1005.69 1005.10
1016.61 1016.52 1016.47 1016.45 1016.45 1016.47 1016.49 1016.50 1016.50 1016.47 1016.40 1016.31 1016.19 1016.04 1015.87 1015.68 1015.50 1015.32 1015.16 1015.01 1014.88 1014.78 1014.70 1014.64 1014.59 1014.54 1014.48 1014.38 1014.24 1014.02 1013.73 1013.34 1012.85 1012.25 1011.55 1010.77 1009.93 1009.06 1008.18 1007.33 1006.53 1005.81 1005.19
1016.58 1016.51 1016.49 1016.49 1016.53 1016.59 1016.65 1016.70 1016.74 1016.75 1016.73 1016.67 1016.57 1016.44 1016.28 1016.10 1015.92 1015.74 1015.57 1015.42 1015.29 1015.19 1015.12 1015.07 1015.03 1014.99 1014.93 1014.84 1014.69 1014.48 1014.18 1013.77 1013.26 1012.65 1011.93 1011.13 1010.27 1009.37 1008.47 1007.59 1006.77 1006.02 1005.37
1016.56 1016.51 1016.50 1016.52 1016.58 1016.67 1016.76 1016.86 1016.94 1016.99 1017.00 1016.98 1016.92 1016.81 1016.67 1016.51 1016.33 1016.15 1015.98 1015.82 1015.68 1015.56 1015.48 1015.41 1015.36 1015.31 1015.24 1015.14 1014.99 1014.77 1014.47 1014.07 1013.56 1012.95 1012.25 1011.45 1010.60 1009.71 1008.82 1007.94 1007.11 1006.34 1005.67
Thickness
5751 5747 5744 5741 5738 5736 5733 5731 5729 5727 5725 5723 5721 5720 5718 5717 5716 5714 5713 5711 5709 5707 5706 5704 5703 5702 5703 5704 5704 5703 5702 5700 5697 5699 5700 5699 5696 5695 5695 5694 5695 5694 5694
5749 5744 5740 5737 5734 5732 5730 5727 5725 5722 5721 5719 5717 5715 5713 5712 5710 5709 5707 5706 5704 5702 5701 5699 5698 5699 5696 5697 5696 5696 5695 5694 5692 5688 5690 5691 5689 5689 5688 5687 5689 5689 5688
5746 5741 5737 5733 5731 5728 5725 5722 5720 5718 5716 5714 5712 5710 5708 5706 5705 5703 5702 5700 5699 5697 5696 5694 5693 5692 5690 5691 5688 5689 5689 5689 5687 5684 5684 5683 5682 5682 5680 5680 5682 5680 5681
5743 5738 5733 5730 5727 5724 5721 5718 5715 5713 5710 5708 5706 5705 5703 5701 5699 5698 5696 5694 5692 5691 5689 5688 5687 5686 5684 5683 5683 5681 5682 5680 5679 5678 5677 5676 5674 5674 5672 5672 5672 5672 5673
5738 5734 5730 5727 5724 5720 5716 5713 5711 5708 5707 5703 5700 5699 5698 5696 5693 5691 5690 5689 5686 5684 5683 5682 5681 5678 5676 5675 5676 5674 5674 5673 5672 5670 5668 5667 5666 5664 5663 5664 5663 5663 5664
5734 5730 5726 5722 5719 5715 5712 5709 5706 5703 5701 5698 5695 5693 5692 5691 5685 5682 5681 5682 5680 5678 5676 5675 5675 5673 5670 5667 5666 5664 5663 5663 5663 5660 5660 5658 5655 5655 5655 5655 5655 5655 5655
5729 5726 5722 5718 5714 5711 5709 5705 5701 5699 5696 5692 5690 5688 5685 5682 5678 5675 5674 5675 5674 5672 5670 5669 5670 5669 5664 5663 5661 5658 5656 5654 5651 5652 5652 5650 5649 5649 5648 5647 5646 5646 5646
5725 5721 5718 5714 5710 5707 5704 5700 5697 5694 5691 5688 5685 5683 5680 5677 5672 5669 5668 5669 5669 5666 5664 5662 5660 5658 5657 5654 5654 5653 5652 5650 5648 5647 5645 5644 5644 5642 5641 5640 5640 5640 5640
5722 5718 5715 5711 5706 5702 5698 5695 5692 5689 5686 5684 5681 5678 5675 5671 5666 5663 5661 5665 5664 5661 5659 5657 5654 5651 5647 5644 5645 5645 5644 5643 5641 5639 5637 5636 5634 5633 5632 5634 5633 5633 5633
5718 5714 5711 5707 5702 5698 5694 5690 5687 5684 5681 5679 5677 5674 5671 5667 5662 5658 5655 5661 5659 5657 5655 5652 5646 5643 5639 5636 5637 5637 5635 5635 5635 5634 5631 5630 5630 5629 5627 5626 5627 5626 5626
5714 5710 5706 5701 5697 5694 5689 5685 5681 5679 5676 5673 5671 5668 5665 5661 5657 5652 5649 5652 5652 5651 5650 5648 5643 5635 5632 5629 5628 5629 5628 5625 5627 5627 5628 5627 5626 5624 5623 5621 5620 5619 5618
5708 5704 5700 5696 5693 5690 5684 5679 5676 5673 5670 5667 5664 5662 5661 5657 5652 5648 5644 5641 5640 5642 5641 5640 5636 5628 5625 5622 5622 5621 5619 5617 5622 5623 5622 5621 5619 5618 5617 5614 5612 5610 5609
5701 5697 5694 5690 5686 5683 5678 5674 5671 5668 5668 5665 5662 5659 5657 5654 5649 5642 5638 5636 5633 5633 5633 5628 5625 5621 5619 5619 5616 5614 5613 5615 5616 5616 5614 5614 5613 5611 5609 5607 5606 5604 5603
5695 5691 5688 5684 5680 5676 5673 5671 5668 5665 5663 5660 5657 5655 5652 5649 5646 5641 5637 5634 5628 5627 5626 5622 5618 5616 5615 5613 5612 5611 5611 5610 5609 5608 5607 5607 5606 5604 5602 5602 5600 5600 5599
5689 5686 5683 5680 5677 5671 5668 5665 5663 5659 5656 5652 5651 5649 5646 5643 5636 5628 5627 5627 5624 5622 5618 5618 5616 5615 5613 5611 5609 5607 5605 5603 5602 5601 5600 5599 5598 5597 5596 5595 5594 5594 5594
5684 5682 5681 5678 5673 5670 5666 5661 5654 5651 5645 5641 5637 5635 5635 5630 5624 5620 5617 5614 5611 5609 5609 5612 5611 5609 5607 5606 5603 5601 5598 5597 5596 5594 5593 5592 5591 5590 5590 5589 5589 5589 5588
5680 5677 5675 5673 5669 5666 5663 5658 5653 5646 5639 5635 5631 5627 5624 5620 5616 5613 5610 5607 5605 5602 5605 5607 5605 5603 5601 5599 5597 5595 5593 5591 5589 5588 5587 5586 5586 5586 5585 5584 5583 5582 5581
5675 5672 5668 5667 5665 5662 5658 5655 5652 5647 5642 5637 5629 5622 5618 5614 5611 5607 5604 5601 5605 5602 5604 5602 5600 5598 5595 5593 5591 5589 5587 5586 5584 5583 5582 5581 5580 5580 5579 5578 5578 5576 5576
5669 5667 5664 5661 5659 5656 5653 5650 5647 5642 5638 5635 5632 5624 5615 5611 5606 5603 5600 5603 5605 5603 5600 5598 5595 5592 5590 5587 5584 5582 5581 5579 5578 5577 5577 5575 5574 5574 5573 5573 5573 5570 5569
5663 5659 5655 5655 5653 5650 5647 5643 5640 5636 5633 5630 5627 5624 5618 5612 5610 5606 5602 5601 5600 5599 5596 5593 5590 5587 5584 5581 5579 5577 5576 5574 5572 5572 5571 5570 5569 5568 5568 5567 5569 5568 5567
5660 5656 5648 5648 5647 5644 5641 5637 5634 5630 5627 5624 5621 5617 5609 5610 5608 5605 5602 5599 5596 5593 5590 5588 5585 5582 5579 5576 5574 5573 5571 5570 5568 5567 5566 5565 5565 5564 5564 5564 5564 5564 5563
5654 5651 5646 5643 5641 5637 5634 5631 5628 5625 5622 5619 5616 5613 5604 5604 5604 5602 5598 5594 5591 5588 5585 5582 5580 5577 5574 5572 5570 5568 5567 5565 5564 5562 5562 5561 5560 5559 5559 5559 5559 5559 5558
5647 5644 5640 5637 5634 5628 5626 5625 5622 5619 5616 5613 5611 5607 5603 5601 5598 5595 5592 5589 5586 5582 5579 5577 5574 5573 5570 5567 5565 5564 5562 5560 5558 5557 5556 5556 5556 5555 5555 5554 5554 5553 5554
5641 5637 5634 5631 5627 5624 5621 5618 5615 5613 5610 5607 5604 5601 5598 5594 5592 5589 5586 5584 5581 5577 5574 5572 5570 5568 5565 5562 5561 5560 5557 5554 5552 5552 5551 5551 5551 5551 5550 5549 5549 5549 5549
5635 5632 5629 5625 5622 5619 5616 5613 5610 5607 5605 5602 5599 5595 5592 5589 5586 5583 5581 5578 5574 5571 5569 5567 5565 5563 5560 5558 5556 5554 5550 5547 5545 5545 5545 5546 5547 5546 5546 5545 5545 5544 5543
5628 5626 5623 5619 5616 5613 5610 5607 5605 5602 5599 5596 5593 5589 5586 5583 5581 5577 5574 5571 5568 5566 5563 5562 5559 5557 5555 5553 5550 5546 5543 5541 5540 5538 5538 5541 5542 5542 5542 5541 5539 5539 5538